{"data":{"norad_id":62055,"epoch":"2026-09-21T06:32:50.487648Z","epoch_age_seconds":114643,"freshness":"FRESH","line1":"1 62055U 24216Z   26264.27280657  .00005356  00000+0  20403-3 0  9990","line2":"2 62055  42.9995 231.2402 0000908 270.7883  89.2864 15.27579220103892","mean_motion":15.2757922,"eccentricity":9.08e-5,"inclination_deg":42.9995,"raan_deg":231.2402,"arg_perigee_deg":270.7883,"mean_anomaly_deg":89.2864,"bstar":0.00020403,"rev_number":10389,"period_min":94.266796847367,"perigee_km":482.42843573166,"apogee_km":483.67442755084,"semimajor_km":6861.1884316413,"source":"CELESTRAK","updated_at":"2026-09-22T09:00:49.491187Z"}}